Temp
8 8 7 6 6 5 5 4 4 5 5 4 5 5 5 4 5 5 4 4 4 5 5 5 5 5 5 5 5 5 5 5 5 4 4 4 5 5 5 5 5 5 5 5
7 6 6 6 5 5 5 4 4 4 4 4 4 4 4 3 3 3 3 3 3 4 4 4 3 3 3 3 4 4 5 5 5 4 4 4 4 5 5 5 5 5 5 5
6 6 5 5 5 5 4 4 4 3 3 3 3 3 3 2 2 2 2 2 2 2 2 2 2 2 2 2 2 2 3 3 4 4 3 3 3 4 5 4 4 4 5 5
5 4 4 4 4 4 3 3 2 2 2 1 1 0 1 1 1 1 1 1 0 1 1 1 1 0 -0 -1 -1 -0 0 1 2 3 3 3 3 3 3 4 4 4 5 5
4 4 3 3 2 1 1 1 1 1 1 1 1 -0 1 0 1 1 0 -0 -1 -1 -0 -0 -0 -2 -2 -2 -2 -2 -2 -1 -0 1 1 2 3 3 3 3 4 4 4 5
3 2 2 1 -0 -0 -0 -0 1 1 1 -2 -1 -3 -1 -0 -1 -1 -1 -1 -2 -2 -2 -2 -2 -2 -3 -3 -3 -2 -2 -2 -2 0 1 2 2 2 3 3 3 3 4 5
1 2 1 0 0 -0 0 -0 -2 -3 -1 -1 -2 -2 -2 -2 -1 -2 -2 -3 -3 -3 -4 -4 -5 -5 -5 -4 -3 -3 -2 -2 -2 -1 0 1 1 2 2 3 3 3 4 4
-1 -0 -0 -1 -2 -2 -2 -3 -3 -5 -5 -4 -4 -4 -2 -3 -2 -3 -3 -4 -4 -6 -5 -5 -5 -5 -5 -4 -3 -3 -3 -3 -2 -2 -2 -2 1 1 2 2 3 3 3 4
-2 -2 -2 -2 -3 -3 -3 -4 -4 -4 -4 -5 -4 -3 -4 -3 -4 -4 -4 -5 -5 -4 -6 -5 -4 -5 -4 -3 -3 -3 -3 -3 -3 -3 -2 -1 -0 1 1 2 2 2 3 4
-4 -5 -4 -4 -4 -4 -4 -5 -5 -5 -9 -8 -5 -4 -4 -4 -5 -5 -5 -5 -5 -6 -6 -6 -6 -5 -5 -4 -4 -4 -4 -4 -3 -2 -2 -1 -0 0 1 2 1 2 3 3
-4 -5 -4 -4 -5 -5 -6 -6 -6 -6 -6 -8 -8 -6 -5 -5 -5 -5 -6 -6 -7 -7 -7 -7 -7 -6 -6 -5 -5 -4 -5 -4 -4 -3 -2 -2 -1 -0 1 1 1 2 2 2
-6 -6 -6 -6 -5 -6 -6 -7 -7 -7 -8 -8 -8 -7 -6 -6 -6 -6 -7 -6 -7 -7 -7 -8 -7 -7 -7 -6 -6 -6 -5 -5 -4 -3 -3 -2 -2 -1 -0 1 1 2 2 2
-7 -7 -7 -6 -6 -6 -7 -7 -8 -8 -9 -9 -9 -7 -6 -6 -7 -7 -8 -7 -7 -7 -8 -8 -7 -7 -7 -7 -7 -7 -7 -5 -5 -4 -3 -2 -2 -1 -1 -0 0 1 2 2
-7 -8 -7 -7 -7 -8 -8 -8 -9 -9 -9 -9 -8 -8 -6 -6 -7 -7 -7 -7 -7 -7 -8 -8 -8 -8 -7 -7 -7 -7 -7 -6 -6 -5 -4 -3 -2 -2 -2 -1 0 1 2 2
-8 -8 -8 -8 -8 -9 -9 -9 -8 -9 -8 -9 -7 -7 -6 -7 -7 -7 -7 -7 -7 -8 -8 -8 -8 -9 -8 -8 -7 -7 -7 -7 -6 -5 -5 -4 -3 -4 -2 -1 -0 1 1 1
-9 -9 -10 -9 -9 -9 -9 -8 -7 -7 -7 -8 -7 -6 -7 -7 -7 -7 -7 -8 -8 -8 -9 -8 -9 -9 -9 -8 -8 -7 -7 -7 -6 -5 -5 -4 -3 -3 -2 -1 -0 1 1 1
-10 -10 -11 -10 -9 -9 -9 -6 -6 -6 -7 -7 -7 -7 -7 -7 -8 -8 -8 -8 -8 -9 -9 -9 -9 -9 -9 -8 -7 -7 -7 -6 -5 -5 -4 -4 -3 -3 -2 -1 -1 0 -0 0
-9 -9 -10 -10 -9 -10 -7 -7 -7 -7 -7 -7 -7 -7 -7 -7 -8 -8 -8 -9 -8 -9 -9 -8 -8 -8 -8 -8 -8 -7 -6 -6 -5 -5 -5 -4 -3 -2 -2 -1 -1 0 -0 -0
-9 -9 -10 -9 -9 -8 -8 -7 -7 -7 -7 -7 -7 -7 -8 -8 -8 -8 -9 -9 -9 -9 -9 -8 -8 -8 -8 -8 -8 -7 -6 -6 -5 -5 -5 -4 -2 -2 -2 -1 -1 -0 0 -0
-9 -10 -10 -10 -9 -9 -7 -8 -8 -8 -7 -8 -8 -8 -8 -8 -8 -8 -8 -9 -9 -9 -9 -9 -8 -8 -8 -8 -8 -7 -6 -5 -5 -5 -5 -4 -3 -2 -2 -2 -0 -1 -0 0
-11 -11 -11 -11 -10 -9 -9 -9 -8 -9 -9 -9 -8 -8 -8 -8 -8 -8 -9 -9 -9 -9 -9 -9 -9 -8 -8 -8 -8 -7 -6 -6 -5 -4 -5 -4 -3 -3 -2 -2 -1 -1 -0 0
-12 -12 -12 -11 -11 -10 -10 -9 -10 -10 -9 -9 -8 -8 -8 -8 -8 -8 -9 -9 -9 -9 -9 -9 -9 -8 -8 -8 -8 -7 -6 -6 -5 -4 -4 -4 -3 -3 -2 -2 -1 -1 -1 -1
-13 -12 -12 -13 -11 -10 -10 -11 -10 -10 -9 -8 -8 -8 -8 -8 -8 -8 -9 -9 -9 -9 -9 -9 -9 -8 -8 -9 -8 -6 -6 -5 -4 -4 -4 -4 -3 -3 -2 -2 -1 -1 -2 -1
-13 -12 -13 -13 -10 -11 -11 -10 -10 -10 -9 -8 -8 -8 -8 -8 -8 -9 -9 -9 -9 -9 -9 -9 -9 -9 -10 -9 -8 -6 -5 -5 -4 -5 -4 -4 -3 -2 -2 -2 -1 -1 -1 -1
-13 -13 -12 -12 -11 -11 -10 -10 -10 -10 -9 -8 -8 -8 -8 -8 -8 -9 -9 -9 -9 -9 -9 -9 -10 -10 -9 -8 -8 -7 -5 -5 -4 -4 -3 -3 -2 -2 -3 -2 -2 -1 -2 -1
-12 -12 -13 -12 -12 -12 -10 -9 -10 -9 -9 -9 -8 -8 -8 -8 -8 -9 -9 -9 -9 -9 -9 -10 -10 -10 -9 -9 -8 -6 -4 -3 -3 -3 -3 -2 -2 -2 -2 -2 -2 -2 -2 -2
Height
3137 3135 3132 3131 3129 3128 3125 3123 3120 3118 3118 3111 3107 3102 3102 3101 3099 3097 3095 3093 3091 3089 3085 3082 3081 3080 3078 3078 3076 3074 3071 3070 3069 3068 3070 3070 3067 3066 3066 3068 3072 3073 3076 3076
3135 3132 3130 3127 3125 3124 3122 3119 3116 3112 3111 3108 3102 3094 3094 3094 3092 3091 3088 3085 3082 3080 3077 3074 3072 3071 3070 3069 3068 3067 3064 3061 3061 3060 3061 3062 3061 3060 3059 3058 3059 3062 3065 3067
3131 3130 3126 3124 3123 3121 3120 3116 3112 3108 3102 3100 3095 3087 3090 3090 3084 3081 3080 3078 3076 3075 3073 3070 3068 3066 3064 3061 3059 3058 3056 3055 3053 3053 3052 3053 3053 3052 3051 3049 3050 3052 3054 3056
3128 3126 3123 3121 3119 3117 3114 3112 3108 3104 3101 3095 3095 3085 3084 3080 3079 3077 3075 3074 3073 3071 3069 3066 3063 3059 3057 3054 3052 3051 3049 3047 3045 3044 3043 3044 3045 3045 3043 3041 3041 3043 3045 3047
3127 3122 3118 3116 3113 3111 3111 3107 3104 3100 3097 3092 3089 3087 3078 3076 3074 3073 3071 3069 3067 3065 3062 3059 3056 3052 3049 3048 3047 3047 3045 3042 3041 3037 3037 3036 3034 3036 3037 3035 3033 3034 3035 3037
3120 3119 3115 3111 3110 3109 3107 3103 3100 3095 3092 3087 3085 3086 3075 3074 3073 3070 3066 3063 3061 3058 3056 3053 3051 3048 3045 3042 3040 3038 3035 3034 3033 3032 3030 3026 3027 3027 3030 3029 3026 3025 3026 3027
3116 3113 3112 3111 3110 3108 3106 3101 3097 3090 3088 3085 3082 3080 3074 3072 3068 3065 3063 3060 3057 3055 3052 3050 3047 3045 3041 3037 3033 3029 3025 3024 3024 3026 3021 3018 3021 3022 3023 3022 3020 3017 3017 3020
3113 3111 3111 3109 3108 3107 3106 3106 3109 3102 3091 3083 3082 3074 3068 3067 3065 3062 3061 3058 3055 3053 3050 3046 3042 3039 3036 3033 3027 3024 3020 3017 3013 3015 3015 3012 3015 3017 3016 3016 3014 3011 3011 3013
3114 3108 3108 3109 3108 3109 3105 3104 3105 3098 3090 3084 3075 3070 3065 3064 3062 3061 3058 3055 3052 3049 3047 3044 3039 3034 3030 3027 3021 3017 3013 3011 3009 3007 3009 3010 3008 3010 3010 3009 3008 3006 3007 3007
3113 3106 3103 3103 3104 3104 3102 3099 3097 3096 3093 3084 3072 3069 3064 3061 3060 3058 3055 3052 3046 3045 3041 3038 3034 3028 3024 3021 3017 3013 3009 3006 3005 3003 3002 3004 3003 3002 3003 3003 3002 3002 3004 3005
3107 3105 3102 3101 3099 3096 3095 3093 3094 3093 3090 3084 3076 3065 3063 3060 3057 3052 3048 3046 3043 3040 3037 3033 3031 3025 3020 3016 3013 3009 3004 3001 2999 2997 2997 2997 2995 2995 2996 2997 2997 2999 3001 3001
3107 3101 3092 3091 3092 3089 3090 3091 3090 3089 3084 3082 3077 3057 3057 3054 3052 3048 3044 3040 3038 3035 3032 3029 3026 3023 3019 3012 3009 3006 3001 2997 2994 2993 2992 2990 2989 2990 2991 2992 2992 2996 2998 3000
3107 3102 3097 3087 3091 3090 3089 3088 3086 3083 3078 3071 3071 3055 3052 3049 3044 3042 3038 3035 3033 3030 3028 3026 3022 3019 3017 3011 3005 3001 2997 2993 2990 2988 2985 2984 2984 2986 2986 2988 2988 2992 2995 2996
3105 3097 3096 3091 3086 3085 3081 3079 3079 3078 3071 3063 3056 3048 3046 3044 3040 3035 3033 3030 3028 3025 3023 3021 3018 3015 3013 3009 3004 2999 2995 2991 2988 2984 2981 2979 2980 2981 2983 2984 2984 2986 2989 2991
3099 3093 3089 3083 3081 3078 3071 3068 3067 3064 3060 3060 3048 3046 3043 3040 3036 3032 3027 3025 3023 3022 3020 3017 3013 3010 3007 3004 3001 2997 2993 2989 2984 2981 2978 2976 2977 2976 2978 2980 2979 2981 2984 2986
3088 3082 3082 3071 3075 3074 3064 3061 3056 3052 3050 3049 3046 3041 3041 3037 3033 3029 3025 3023 3022 3019 3016 3012 3008 3005 3002 2999 2996 2993 2989 2986 2982 2978 2975 2971 2971 2971 2974 2974 2974 2976 2979 2983
3082 3081 3080 3067 3069 3067 3061 3052 3052 3049 3047 3046 3044 3041 3037 3033 3030 3027 3024 3021 3018 3015 3012 3008 3004 3001 2997 2995 2992 2988 2984 2981 2977 2973 2969 2967 2967 2968 2969 2971 2970 2972 2975 2980
3075 3077 3075 3066 3066 3064 3053 3051 3049 3046 3043 3040 3040 3038 3035 3031 3028 3025 3022 3018 3015 3011 3007 3003 2999 2995 2992 2988 2986 2983 2979 2975 2971 2968 2965 2964 2963 2964 2966 2966 2966 2969 2971 2976
3069 3070 3069 3065 3062 3056 3049 3048 3047 3043 3042 3039 3038 3036 3032 3029 3026 3024 3019 3014 3009 3005 3001 2997 2994 2989 2986 2982 2979 2977 2974 2971 2967 2965 2962 2960 2960 2961 2961 2961 2962 2962 2964 2974
3067 3066 3068 3064 3057 3053 3048 3047 3045 3042 3040 3039 3037 3033 3031 3027 3023 3020 3015 3010 3005 3000 2995 2992 2989 2985 2981 2978 2974 2970 2967 2965 2962 2960 2959 2957 2958 2960 2958 2956 2958 2956 2961 2974
3062 3062 3062 3058 3053 3047 3044 3043 3041 3041 3043 3037 3035 3032 3029 3025 3022 3016 3011 3006 3001 2996 2991 2987 2984 2980 2976 2972 2967 2964 2961 2958 2957 2955 2955 2954 2955 2957 2958 2957 2957 2961 2968 2974
3060 3060 3057 3052 3048 3043 3041 3040 3042 3039 3034 3033 3032 3029 3026 3022 3018 3012 3008 3003 2999 2993 2988 2983 2978 2974 2970 2966 2961 2955 2953 2952 2951 2950 2951 2951 2952 2951 2957 2958 2963 2967 2969 2972
3057 3056 3054 3053 3043 3039 3039 3037 3036 3034 3031 3029 3028 3025 3022 3019 3015 3010 3005 3000 2996 2990 2984 2979 2973 2968 2964 2959 2952 2946 2944 2943 2943 2945 2948 2949 2951 2955 2957 2959 2966 2968 2972 2977
3051 3050 3047 3044 3036 3036 3033 3034 3032 3030 3029 3027 3025 3022 3019 3016 3012 3008 3002 2997 2992 2986 2980 2974 2967 2961 2953 2945 2939 2935 2933 2935 2936 2939 2946 2949 2953 2957 2960 2960 2964 2969 2974 2982
3043 3042 3037 3031 3030 3029 3029 3030 3028 3027 3025 3024 3022 3019 3017 3013 3009 3005 3000 2994 2988 2982 2975 2968 2960 2949 2938 2930 2925 2923 2922 2925 2929 2935 2942 2947 2953 2958 2963 2965 2968 2973 2982 2990
3035 3032 3030 3023 3024 3022 3022 3024 3024 3023 3021 3021 3020 3017 3014 3011 3007 3002 2997 2992 2985 2978 2971 2963 2952 2938 2928 2921 2915 2913 2914 2919 2925 2933 2939 2946 2953 2959 2963 2968 2973 2980 2987 2993
Wind_Speed
9 17 6 9 16 16 19 21 27 31 30 34 37 45 43 37 37 23 21 25 30 37 40 43 43 43 44 42 43 41 44 45 45 40 33 31 33 35 36 36 38 39 37 36
19 5 22 24 19 20 21 26 29 38 14 40 40 47 42 9 10 28 35 35 35 37 39 41 40 39 39 40 43 45 46 48 46 41 29 26 26 27 29 30 33 34 36 36
30 18 14 15 17 23 24 28 31 34 37 38 37 33 23 25 32 24 21 24 27 28 30 32 34 37 40 41 42 42 44 44 43 48 31 22 19 23 25 26 27 30 32 35
13 10 17 24 26 25 25 22 24 31 31 25 25 15 31 13 14 15 13 16 21 24 27 33 38 39 39 38 36 34 34 33 37 41 32 23 16 16 22 24 26 29 31 32
17 25 20 27 28 19 16 21 22 27 30 28 21 11 11 14 13 19 26 29 31 31 34 38 38 37 34 32 31 29 30 29 29 29 37 20 17 16 18 22 23 24 28 32
18 26 28 13 9 11 15 22 30 23 28 7 6 14 6 14 22 34 37 32 31 30 30 31 35 35 36 37 38 41 38 41 27 28 24 17 20 18 20 23 21 23 25 29
31 15 7 11 14 17 23 33 13 6 2 8 7 20 21 37 23 31 28 27 27 28 29 31 34 34 31 26 23 28 30 35 32 26 23 15 19 23 22 25 19 21 23 24
9 5 7 12 20 17 17 14 5 6 3 13 31 11 12 23 29 26 26 27 25 23 32 33 33 35 21 24 24 23 22 25 32 48 31 14 23 22 23 27 18 20 20 22
12 6 6 21 23 15 12 8 14 22 31 16 11 21 16 23 22 22 28 28 32 32 29 27 27 23 21 23 23 25 21 21 17 19 24 23 26 27 23 28 17 16 15 16
11 19 13 5 7 16 16 22 8 7 4 5 8 22 23 17 14 27 35 31 25 24 29 29 29 28 26 23 21 23 23 21 21 23 23 25 26 23 25 26 13 12 12 14
18 15 16 25 21 26 14 5 4 8 9 3 7 12 18 36 41 34 29 25 24 31 31 22 24 26 26 25 22 23 25 24 22 25 22 21 21 21 23 20 12 10 11 10
18 13 24 30 17 15 6 1 14 9 8 18 20 33 29 17 25 30 28 26 23 26 23 20 25 28 25 24 20 19 22 25 25 23 23 19 20 21 18 16 15 12 13 12
23 8 17 17 2 6 15 31 24 24 27 27 13 21 36 35 36 32 32 25 25 26 20 20 26 30 22 22 19 19 22 23 24 23 22 19 19 16 12 13 16 15 16 17
26 23 22 22 29 31 35 37 34 31 24 27 35 38 31 27 25 21 18 22 22 19 16 22 27 28 23 20 19 18 20 21 22 21 21 17 16 12 12 14 15 16 20 21
11 22 24 31 35 34 39 42 35 31 32 28 36 33 28 27 24 22 21 20 16 15 20 23 27 25 24 23 21 20 20 21 20 20 20 14 16 9 11 13 10 19 19 21
28 26 22 40 34 29 38 34 34 27 22 23 18 28 24 23 20 18 13 12 16 16 20 25 25 24 24 24 22 22 22 21 20 20 19 13 16 11 7 15 10 19 21 22
37 36 28 40 30 28 22 18 12 16 16 17 22 23 20 17 15 16 18 22 22 23 23 25 27 25 25 26 24 23 22 20 20 20 19 13 17 17 15 6 12 18 21 26
23 23 22 27 25 6 13 15 20 22 17 15 14 14 18 18 18 20 22 23 24 25 26 26 28 27 25 27 25 23 21 21 21 19 19 12 19 17 17 12 13 26 28 27
10 11 11 7 11 26 26 8 9 11 15 14 11 15 19 20 20 20 23 26 28 30 30 30 29 28 26 26 27 26 24 20 21 19 19 12 21 20 12 11 14 24 34 31
7 10 17 21 8 4 4 10 18 18 16 6 15 20 24 22 24 25 27 29 31 31 27 26 26 26 27 26 28 29 29 22 22 19 18 13 21 18 4 5 16 23 28 28
17 24 15 23 20 11 10 10 9 3 8 12 16 23 26 25 25 27 28 26 26 22 22 23 24 25 26 26 29 30 31 27 25 22 17 12 20 19 7 8 6 18 24 26
30 15 20 8 6 5 5 10 13 11 10 15 21 20 24 25 25 25 24 23 22 23 24 26 28 28 27 26 30 34 33 32 28 24 13 13 21 8 10 10 16 14 23 38
13 8 13 19 23 25 20 15 21 20 23 15 21 18 21 23 24 23 23 23 25 27 27 29 30 32 29 37 42 38 37 35 32 21 12 15 18 9 12 13 17 13 26 40
23 25 30 29 31 28 27 19 13 12 18 17 16 15 19 21 21 22 23 25 28 28 29 31 32 36 44 41 38 36 33 29 21 15 14 19 23 16 10 7 21 24 34 39
35 34 33 34 27 22 18 17 11 6 10 9 13 16 17 19 19 21 22 26 28 29 31 33 38 49 42 36 34 32 24 17 16 18 21 25 25 22 17 19 19 27 36 38
33 32 33 35 22 22 13 11 9 4 9 12 13 15 17 19 19 20 23 28 31 32 33 39 49 41 32 26 24 11 14 19 23 23 29 34 31 32 19 20 29 31 25 31
Wind_Direction
338 339 321 312 308 298 290 291 296 299 305 299 303 302 304 306 308 306 293 288 279 275 278 279 281 279 275 270 269 269 272 277 282 285 287 282 273 274 275 274 266 263 265 267
332 317 311 306 297 289 291 292 296 303 296 301 305 303 309 328 290 293 290 286 274 271 272 277 282 280 275 266 261 259 265 270 275 279 276 275 270 266 268 271 271 267 261 259
327 316 299 296 299 299 293 296 299 299 305 304 306 306 307 299 299 291 290 281 283 286 289 290 288 282 273 268 265 264 264 264 266 274 275 277 275 274 273 270 266 264 259 257
334 323 302 295 295 302 300 297 296 299 309 311 302 292 303 298 302 295 300 311 308 301 294 292 286 273 267 268 269 269 265 263 261 261 269 274 282 277 271 278 275 267 257 250
318 316 310 310 305 308 298 303 303 303 299 300 295 262 287 306 303 305 305 300 294 285 279 276 271 270 272 277 279 281 280 270 270 261 265 271 281 291 291 281 282 277 262 248
311 314 303 300 297 309 306 307 309 301 297 272 174 349 255 306 308 301 300 299 297 284 269 269 271 277 285 287 288 289 282 284 263 257 252 263 282 289 290 287 286 286 268 247
314 319 279 278 292 309 310 324 331 328 325 268 292 326 284 292 306 301 298 293 286 279 280 284 289 297 297 303 302 299 292 278 258 257 242 250 271 282 285 286 289 295 276 246
321 303 271 294 324 321 327 340 261 279 279 296 303 259 287 300 296 285 286 287 282 295 298 302 305 310 313 315 309 308 297 294 271 251 259 273 268 272 279 287 286 298 280 244
310 273 209 298 300 310 317 331 296 287 284 280 266 276 301 299 288 305 307 291 315 305 296 303 305 320 319 309 305 308 309 298 295 258 277 268 272 266 271 278 285 288 276 247
298 300 304 260 260 299 293 299 294 271 308 293 288 299 287 286 302 311 305 302 299 305 319 320 327 326 324 317 307 305 307 302 291 280 285 280 272 269 259 266 270 268 257 235
299 295 284 296 301 307 311 326 265 295 279 271 304 279 291 291 296 301 308 304 304 311 313 319 331 328 325 320 314 303 304 302 297 295 295 286 281 271 259 260 251 246 240 210
310 293 290 303 319 288 221 311 314 300 289 279 280 278 304 302 301 303 301 275 314 308 313 308 318 331 329 325 314 308 305 303 302 299 293 287 282 273 261 251 232 223 218 204
310 302 316 312 307 150 290 300 306 311 296 277 266 278 305 313 314 309 302 310 300 304 296 303 314 325 317 324 328 322 315 310 309 306 297 287 278 261 239 241 233 223 232 218
289 278 268 262 280 293 295 294 299 300 278 279 273 287 319 329 317 308 300 295 300 303 292 304 313 321 313 315 322 333 330 321 311 304 298 284 266 243 216 233 236 231 229 228
297 269 272 277 286 292 292 297 301 287 283 266 287 302 324 325 323 322 305 299 303 303 307 307 309 312 314 313 316 324 326 328 320 300 301 277 236 217 233 215 225 218 221 209
299 282 284 288 295 300 300 300 297 297 291 282 300 306 325 318 327 337 331 311 304 299 298 303 306 307 305 308 312 316 320 325 325 301 300 278 226 203 234 229 239 220 210 199
287 284 286 284 299 303 295 309 302 297 295 294 300 312 323 326 327 323 323 322 321 318 313 307 307 306 307 306 308 309 314 318 321 310 296 287 216 206 235 206 243 224 199 193
288 287 278 276 295 261 295 308 299 294 316 279 287 304 336 343 327 321 321 318 315 313 311 313 316 314 310 306 307 309 314 309 314 311 297 287 215 220 231 246 257 208 198 195
291 282 262 260 268 286 299 314 314 326 316 316 309 330 348 347 338 333 319 318 319 318 314 309 313 314 313 309 307 311 313 304 311 310 299 281 216 217 227 238 244 208 202 185
271 308 287 279 256 257 308 320 293 295 314 330 338 343 345 343 336 335 327 325 323 320 316 312 312 314 314 311 307 306 306 305 309 310 297 270 224 222 235 243 248 184 157 165
305 315 293 305 280 262 274 326 282 281 310 322 317 322 330 335 331 329 326 327 325 325 326 323 322 319 315 310 304 301 300 303 307 313 295 266 226 216 117 209 175 162 169 169
299 289 292 279 276 238 305 329 332 281 299 319 313 312 321 331 330 330 329 330 326 324 325 321 319 318 316 309 301 295 295 299 302 306 281 250 226 194 190 198 161 166 144 156
280 283 281 299 269 284 306 326 317 288 287 313 311 315 321 328 328 331 335 332 328 323 320 318 316 315 313 307 296 289 290 291 292 290 249 228 217 153 149 148 191 187 175 156
292 293 291 296 277 285 284 316 302 318 296 304 307 322 327 324 327 332 338 333 326 323 321 322 320 315 310 303 294 288 283 278 267 241 203 200 187 165 119 134 173 149 152 156
292 294 294 292 290 289 274 278 284 322 6 320 317 329 325 324 328 334 338 336 333 329 328 327 321 319 316 306 295 289 279 254 215 198 185 182 172 169 151 133 170 154 149 154
305 306 292 290 294 296 262 239 226 278 5 341 327 330 328 327 331 333 336 338 335 335 336 329 330 331 319 308 307 302 236 202 190 177 178 179 179 172 160 160 149 148 155 135